Location: Lane
(34.3181°N, 86.2403°W)
Time: 02:59:26
(UTC+00:00)

Tiangong 2 - Visible Passes

Search period start: 19 June 2018 00:00
Search period end: 29 June 2018 00:00
Orbit: 292 x 297 km, 42.8° (Epoch: 18 June)

Date Brightness Start Highest point End Pass type
(mag) Time Alt. Az. Time Alt. Az. Time Alt. Az.
23 Jun 2.6 10:00:13 10° SSW 10:02:12 20° SE 10:04:12 10° E visible
26 Jun 2.6 08:46:03 21° ESE 08:46:03 21° ESE 08:47:31 10° E visible
27 Jun 1.1 08:51:26 53° ESE 08:51:26 53° ESE 08:53:36 10° ENE visible
28 Jun 1.0 08:56:43 51° NW 08:56:48 52° NNW 08:59:18 10° NE visible
